SCP
0 0 0 0 0 0 0 0 0 0 0 0 0 0 0 0 0 0 0 0 0 0 0 0 0 0 0 0 0 0 0 0
0 0 0 0 0 0 0 0 0 0 0 0 0 0 0 0 0 0 0 0 0 0 0 0 0 0 0 0 0 0 0 0
0 0 0 0 0 0 0 0 0 0 0 0 0 0 0 0 0 0 0 0 0 0 0 0 0 0 0 0 0 0 0 0
0 0 0 0 0 0 0 0 0 0 0 0 0 0 0 0 0 0 0 0 0 0 0 0 0 0 0 0 0 0 0 0
0 0 0 0 0 0 0 0 0 0 0 0 -0 0 0 0 0 0 0 0 0 0 0 0 0 0 0 0 0 0 0 0
0 0 0 0 0 0 0 0 0 -0 0 -0 0 -0 0 0 0 0 0 0 0 0 0 0 0 0 0 0 0 0 0 0
0 0 0 0 0 0 0 0 0 -0 0 -0 0 0 0 0 0 0 0 0 0 0 0 0 0 0 0 0 0 0 0 0
0 0 0 0 0 -0 0 0 0 0 0 -0 0 0 0 0 0 0 0 0 0 0 0 0 0 0 0 0 0 0 0 0
0 0 0 0 0 0 -0 0 -0 0 0 -0 0 0 0 0 0 0 0 0 0 0 0 0 0 0 0 0 0 0 0 0
0 0 0 0 0 0 -0 0 -0 -0 0 -0 -0 -0 0 0 0 0 0 0 0 0 0 0 0 0 0 0 0 0 0 0
0 0 0 0 0 0 0 0 -0 0 0 -0 0 0 0 0 0 0 0 0 0 0 0 0 0 0 0 0 0 0 0 0
0 0 0 0 0 0 0 0 0 0 0 -0 -0 0 -0 0 0 0 0 0 0 -0 -0 0 0 0 0 0 0 0 0 0
0 0 0 0 0 0 0 0 0 0 -0 -0 -0 -0 -0 0 0 0 0 0 -0 -0 -0 -0 -0 0 0 -0 -0 -0 -0 0
0 0 0 0 0 0 0 0 0 0 -0 -0 -0 -0 -0 -0 0 0 -0 -0 -0 -0 -0 -0 -0 -0 -0 0 0 -0 -0 0
0 0 0 0 0 0 0 0 0 0 0 0 -0 -0 -0 0 0 0 0 -0 -0 -0 -0 -0 -0 -0 0 0 0 0 0 0
0 0 0 0 0 0 0 0 0 0 0 0 0 -0 0 0 0 0 0 -0 -0 0 -0 -0 -0 -0 -0 -0 0 0 0 0
0 0 0 0 0 0 0 0 0 0 0 0 0 0 0 0 0 0 -0 -0 0 0 0 0 0 0 0 0 0 0 0 0
0 0 0 0 0 0 0 0 0 0 0 0 0 0 0 0 0 0 -0 -0 -0 0 0 0 0 0 0 0 0 0 0 0
0 0 0 0 0 0 0 0 0 0 0 0 0 0 0 0 0 0 0 0 -0 0 0 0 0 0 0 0 0 0 0 0
0 0 0 0 0 0 0 0 0 0 0 0 0 0 0 0 0 0 0 0 0 0 0 0 0 0 0 0 0 0 0 0
Wind_Speed_500mb
8 14 16 18 13 18 21 23 26 25 23 22 27 32 33 24 30 28 27 26 25 17 14 12 11 9 11 11 14 15 14 10
10 14 13 12 12 17 22 22 24 22 21 24 31 32 34 29 27 29 25 28 25 18 16 13 11 11 10 9 11 14 17 19
8 11 13 9 12 17 18 18 17 17 20 25 32 34 35 26 27 26 26 29 31 29 24 19 14 10 9 12 14 16 19 21
8 11 11 6 11 17 17 13 12 15 21 23 30 34 37 28 24 27 29 33 35 35 36 33 29 20 14 13 17 19 22 24
9 10 8 6 11 15 13 6 9 12 17 20 25 29 30 31 28 23 22 27 28 29 30 30 29 27 27 25 24 23 21 18
7 8 5 7 10 11 10 4 9 10 13 18 19 23 24 24 22 20 16 19 21 21 25 26 26 25 24 22 21 20 19 18
8 5 5 7 11 10 8 3 7 8 11 15 21 22 21 19 18 16 16 18 16 14 17 21 24 22 18 16 15 14 13 13
8 7 6 8 13 13 8 5 5 4 7 11 17 22 22 21 17 17 18 17 12 9 8 9 10 10 14 12 9 11 13 12
12 11 12 11 13 16 9 7 6 4 3 8 17 22 23 22 19 21 16 16 14 13 12 11 8 6 5 7 5 9 12 16
17 16 15 14 15 16 13 9 8 7 5 5 13 24 25 32 27 17 15 19 21 19 19 16 15 11 9 7 3 7 14 10
22 19 17 15 18 16 16 13 11 9 7 8 7 20 24 27 32 24 16 18 23 21 14 18 18 17 16 15 13 13 12 14
22 22 21 17 17 16 15 17 14 11 11 12 11 17 21 28 34 34 18 16 19 23 20 13 10 10 11 14 16 17 17 17
24 24 25 22 20 18 18 20 19 15 13 12 14 18 19 25 31 34 25 18 17 17 19 17 8 7 12 10 8 10 13 15
28 27 29 27 27 23 23 24 26 20 21 18 18 21 22 26 33 34 26 19 18 18 18 18 15 12 11 10 11 11 12 13
33 31 30 30 29 29 26 28 30 28 24 21 20 21 22 25 32 37 26 19 19 20 20 19 20 17 16 14 14 19 21 23
32 30 31 31 30 30 29 32 33 34 29 26 24 23 24 23 29 34 25 17 18 22 23 21 20 20 16 17 20 22 20 18
37 35 29 30 33 33 30 32 36 36 34 30 26 25 24 22 31 39 18 18 17 23 26 20 19 17 14 14 15 17 17 15
35 38 27 29 33 31 29 33 35 37 37 35 30 29 26 22 24 34 15 11 18 19 22 17 19 19 15 15 18 18 18 13
17 31 32 35 35 30 28 34 39 40 36 33 37 34 27 24 25 22 23 20 19 20 22 17 18 22 18 18 18 19 18 14
28 30 28 36 38 35 35 34 39 44 39 35 35 34 32 29 27 26 22 22 22 17 17 15 17 19 18 20 22 21 21 18
Wind_Direction_500mb
313 340 349 342 351 355 354 352 358 357 3 13 19 15 9 14 35 33 30 18 10 15 27 54 73 80 73 60 46 36 33 31
316 340 344 342 354 350 351 353 357 4 22 21 14 10 4 19 27 31 25 15 23 32 46 58 67 74 71 67 53 48 58 71
302 327 333 334 347 352 354 357 14 27 26 20 20 18 18 27 33 33 31 36 46 54 58 57 61 67 74 80 63 68 72 77
307 319 324 322 340 352 356 10 32 29 25 22 16 25 25 35 40 37 48 55 53 54 59 61 62 67 79 83 86 83 80 80
305 313 309 306 328 343 355 20 18 17 31 13 24 23 27 33 44 49 60 46 48 46 49 52 54 60 71 81 85 84 80 78
318 317 304 315 331 342 341 350 357 2 20 23 18 15 17 22 30 38 34 28 34 48 48 56 62 65 71 77 80 80 78 74
342 337 325 325 334 330 332 297 347 13 23 31 24 21 11 4 15 15 9 21 29 38 52 55 61 62 62 67 69 65 61 72
319 308 325 326 324 318 309 271 317 359 24 32 19 14 21 17 356 354 350 356 2 4 6 17 27 36 43 48 54 53 43 12
298 294 297 297 306 317 282 258 284 285 329 8 1 359 5 359 2 13 349 336 326 318 311 320 324 327 343 358 25 28 6 353
293 283 298 287 297 303 252 245 271 276 271 323 353 343 358 348 347 331 341 351 345 299 284 284 293 293 295 305 280 319 344 350
289 281 287 293 297 289 251 227 245 268 258 283 311 325 330 340 347 347 327 331 343 351 311 283 280 284 284 276 263 261 301 320
286 276 287 286 295 287 240 226 237 257 265 281 290 302 318 323 333 344 329 327 332 352 352 322 302 310 311 292 273 271 279 290
286 277 279 285 285 278 247 238 237 255 272 259 285 302 312 319 325 323 325 316 321 327 348 352 335 336 340 336 321 285 286 285
290 280 275 281 284 274 251 245 243 255 256 265 278 302 300 308 320 329 324 309 310 312 317 332 329 310 302 313 317 312 301 295
295 290 280 275 280 271 254 249 248 252 263 264 272 291 301 301 319 323 324 312 309 304 304 310 323 297 299 305 307 312 301 288
285 279 279 273 274 271 262 253 253 253 260 260 271 284 294 303 320 323 299 299 308 311 299 296 308 316 283 291 299 308 316 310
267 270 284 283 275 281 270 255 254 257 257 257 266 274 289 296 306 319 299 292 288 304 322 292 295 309 295 293 304 312 309 308
254 269 297 295 286 284 269 254 256 259 257 256 256 265 280 291 303 318 281 312 307 300 326 305 290 299 294 291 303 313 317 303
273 268 285 296 297 286 280 260 254 256 261 259 254 258 268 276 282 304 291 278 290 295 306 315 304 300 288 285 291 294 310 301
312 315 278 295 295 291 284 276 261 259 252 252 253 255 258 265 264 274 289 297 286 283 289 294 308 305 307 297 287 288 289 307
Wind_Speed_850mb
8 14 16 18 13 18 21 23 26 25 23 22 27 32 33 24 30 28 27 26 25 17 14 12 11 9 11 11 14 15 14 10
10 14 13 12 12 17 22 22 24 22 21 24 31 32 34 29 27 29 25 28 25 18 16 13 11 11 10 9 11 14 17 19
8 11 13 9 12 17 18 18 17 17 20 25 32 34 35 26 27 26 26 29 31 29 24 19 14 10 9 12 14 16 19 21
8 11 11 6 11 17 17 13 12 15 21 23 30 34 37 28 24 27 29 33 35 35 36 33 29 20 14 13 17 19 22 24
9 10 8 6 11 15 13 6 9 12 17 20 25 29 30 31 28 23 22 27 28 29 30 30 29 27 27 25 24 23 21 18
7 8 5 7 10 11 10 4 9 10 13 18 19 23 24 24 22 20 16 19 21 21 25 26 26 25 24 22 21 20 19 18
8 5 5 7 11 10 8 3 7 8 11 15 21 22 21 19 18 16 16 18 16 14 17 21 24 22 18 16 15 14 13 13
8 7 6 8 13 13 8 5 5 4 7 11 17 22 22 21 17 17 18 17 12 9 8 9 10 10 14 12 9 11 13 12
12 11 12 11 13 16 9 7 6 4 3 8 17 22 23 22 19 21 16 16 14 13 12 11 8 6 5 7 5 9 12 16
17 16 15 14 15 16 13 9 8 7 5 5 13 24 25 32 27 17 15 19 21 19 19 16 15 11 9 7 3 7 14 10
22 19 17 15 18 16 16 13 11 9 7 8 7 20 24 27 32 24 16 18 23 21 14 18 18 17 16 15 13 13 12 14
22 22 21 17 17 16 15 17 14 11 11 12 11 17 21 28 34 34 18 16 19 23 20 13 10 10 11 14 16 17 17 17
24 24 25 22 20 18 18 20 19 15 13 12 14 18 19 25 31 34 25 18 17 17 19 17 8 7 12 10 8 10 13 15
28 27 29 27 27 23 23 24 26 20 21 18 18 21 22 26 33 34 26 19 18 18 18 18 15 12 11 10 11 11 12 13
33 31 30 30 29 29 26 28 30 28 24 21 20 21 22 25 32 37 26 19 19 20 20 19 20 17 16 14 14 19 21 23
32 30 31 31 30 30 29 32 33 34 29 26 24 23 24 23 29 34 25 17 18 22 23 21 20 20 16 17 20 22 20 18
37 35 29 30 33 33 30 32 36 36 34 30 26 25 24 22 31 39 18 18 17 23 26 20 19 17 14 14 15 17 17 15
35 38 27 29 33 31 29 33 35 37 37 35 30 29 26 22 24 34 15 11 18 19 22 17 19 19 15 15 18 18 18 13
17 31 32 35 35 30 28 34 39 40 36 33 37 34 27 24 25 22 23 20 19 20 22 17 18 22 18 18 18 19 18 14
28 30 28 36 38 35 35 34 39 44 39 35 35 34 32 29 27 26 22 22 22 17 17 15 17 19 18 20 22 21 21 18
Wind_Direction_850mb
313 340 349 342 351 355 354 352 358 357 3 13 19 15 9 14 35 33 30 18 10 15 27 54 73 80 73 60 46 36 33 31
316 340 344 342 354 350 351 353 357 4 22 21 14 10 4 19 27 31 25 15 23 32 46 58 67 74 71 67 53 48 58 71
302 327 333 334 347 352 354 357 14 27 26 20 20 18 18 27 33 33 31 36 46 54 58 57 61 67 74 80 63 68 72 77
307 319 324 322 340 352 356 10 32 29 25 22 16 25 25 35 40 37 48 55 53 54 59 61 62 67 79 83 86 83 80 80
305 313 309 306 328 343 355 20 18 17 31 13 24 23 27 33 44 49 60 46 48 46 49 52 54 60 71 81 85 84 80 78
318 317 304 315 331 342 341 350 357 2 20 23 18 15 17 22 30 38 34 28 34 48 48 56 62 65 71 77 80 80 78 74
342 337 325 325 334 330 332 297 347 13 23 31 24 21 11 4 15 15 9 21 29 38 52 55 61 62 62 67 69 65 61 72
319 308 325 326 324 318 309 271 317 359 24 32 19 14 21 17 356 354 350 356 2 4 6 17 27 36 43 48 54 53 43 12
298 294 297 297 306 317 282 258 284 285 329 8 1 359 5 359 2 13 349 336 326 318 311 320 324 327 343 358 25 28 6 353
293 283 298 287 297 303 252 245 271 276 271 323 353 343 358 348 347 331 341 351 345 299 284 284 293 293 295 305 280 319 344 350
289 281 287 293 297 289 251 227 245 268 258 283 311 325 330 340 347 347 327 331 343 351 311 283 280 284 284 276 263 261 301 320
286 276 287 286 295 287 240 226 237 257 265 281 290 302 318 323 333 344 329 327 332 352 352 322 302 310 311 292 273 271 279 290
286 277 279 285 285 278 247 238 237 255 272 259 285 302 312 319 325 323 325 316 321 327 348 352 335 336 340 336 321 285 286 285
290 280 275 281 284 274 251 245 243 255 256 265 278 302 300 308 320 329 324 309 310 312 317 332 329 310 302 313 317 312 301 295
295 290 280 275 280 271 254 249 248 252 263 264 272 291 301 301 319 323 324 312 309 304 304 310 323 297 299 305 307 312 301 288
285 279 279 273 274 271 262 253 253 253 260 260 271 284 294 303 320 323 299 299 308 311 299 296 308 316 283 291 299 308 316 310
267 270 284 283 275 281 270 255 254 257 257 257 266 274 289 296 306 319 299 292 288 304 322 292 295 309 295 293 304 312 309 308
254 269 297 295 286 284 269 254 256 259 257 256 256 265 280 291 303 318 281 312 307 300 326 305 290 299 294 291 303 313 317 303
273 268 285 296 297 286 280 260 254 256 261 259 254 258 268 276 282 304 291 278 290 295 306 315 304 300 288 285 291 294 310 301
312 315 278 295 295 291 284 276 261 259 252 252 253 255 258 265 264 274 289 297 286 283 289 294 308 305 307 297 287 288 289 307